When you browse on this site, cookies collect data to enhance your experience and personalize the content and advertising you see.
Visit our Privacy Policy to learn more. By continuing to use the site, you agree to this use of cookies and data.
  • In Spain
  • List of Countries
  • For 7 days
  • Water Temperature
  • Weather Map
  • Weather Widgets
  • user-avatar
    Login

    Hourly Weather Shkoder

    Today, 10 December, Tuesday

    Time Temperature Precipitation Wind Pressure Humidity
    00:00 +10°C° 0.6 mm 1 mps 734 mmHg 91%
    01:00 +10°C° 0 mm 1 mps 734 mmHg 90%
    02:00 +10°C° 0.6 mm 1 mps 734 mmHg 91%
    03:00 +10°C° 0.6 mm 1 mps 733 mmHg 92%
    04:00 +10°C° 0.6 mm 1 mps 733 mmHg 92%
    05:00 +10°C° 1 mm 1 mps 733 mmHg 93%
    06:00 +10°C° 1 mm 1 mps 733 mmHg 93%
    07:00 +10°C° 1 mm 1 mps 733 mmHg 94%
    08:00 +10°C° 1.1 mm 1 mps 733 mmHg 94%
    09:00 +10°C° 1.1 mm 1 mps 734 mmHg 93%
    10:00 +10°C° 1.1 mm 1 mps 734 mmHg 93%
    11:00 +9°C° 0.5 mm 2 mps 734 mmHg 92%
    12:00 +9°C° 0.5 mm 2 mps 734 mmHg 91%
    13:00 +9°C° 0.5 mm 2 mps 734 mmHg 90%
    14:00 +9°C° 0.5 mm 2 mps 734 mmHg 90%
    15:00 +9°C° 0.5 mm 2 mps 734 mmHg 90%
    16:00 +9°C° 0.5 mm 2 mps 734 mmHg 90%
    17:00 +9°C° 0.3 mm 3 mps 734 mmHg 89%
    18:00 +9°C° 0.3 mm 3 mps 734 mmHg 88%
    19:00 +9°C° 0.3 mm 3 mps 735 mmHg 87%
    20:00 +8°C° 0.1 mm 3 mps 735 mmHg 86%
    21:00 +7°C° 0.1 mm 4 mps 735 mmHg 85%
    22:00 +7°C° 0.1 mm 4 mps 735 mmHg 84%
    23:00 +7°C° 0.1 mm 4 mps 735 mmHg 83%

    Tomorrow, 11 December, Wednesday

    Time Temperature Precipitation Wind Pressure Humidity
    00:00 +7°C° 0.1 mm 4 mps 735 mmHg 83%
    01:00 +7°C° 0.1 mm 4 mps 735 mmHg 83%
    02:00 +7°C° 0 mm 4 mps 735 mmHg 83%
    03:00 +7°C° 0 mm 4 mps 735 mmHg 83%
    04:00 +7°C° 0 mm 5 mps 734 mmHg 82%
    05:00 +7°C° 0 mm 4 mps 735 mmHg 82%
    06:00 +6°C° 0 mm 4 mps 735 mmHg 83%
    07:00 +6°C° 0 mm 4 mps 735 mmHg 83%
    08:00 +7°C° 0 mm 4 mps 735 mmHg 81%
    09:00 +7°C° 0 mm 4 mps 735 mmHg 80%
    10:00 +7°C° 0 mm 4 mps 736 mmHg 78%
    11:00 +8°C° 0 mm 4 mps 735 mmHg 76%
    12:00 +8°C° 0 mm 4 mps 735 mmHg 74%
    13:00 +8°C° 0 mm 4 mps 735 mmHg 73%
    14:00 +7°C° 0 mm 4 mps 735 mmHg 75%
    15:00 +8°C° 0 mm 3 mps 734 mmHg 77%
    16:00 +7°C° 0 mm 3 mps 734 mmHg 79%
    17:00 +7°C° 0 mm 3 mps 734 mmHg 81%
    18:00 +5°C° 0 mm 3 mps 734 mmHg 82%
    19:00 +5°C° 0 mm 3 mps 735 mmHg 83%
    20:00 +5°C° 0 mm 3 mps 734 mmHg 83%
    21:00 +4°C° 0 mm 3 mps 734 mmHg 83%
    22:00 +4°C° 0 mm 3 mps 734 mmHg 83%
    23:00 +5°C° 0 mm 2 mps 734 mmHg 83%

    Day after tomorrow, 12 December, Thursday

    Time Temperature Precipitation Wind Pressure Humidity
    00:00 +5°C° 0 mm 2 mps 734 mmHg 83%
    01:00 +5°C° 0 mm 2 mps 733 mmHg 83%
    02:00 +5°C° 0 mm 2 mps 733 mmHg 83%
    03:00 +5°C° 0 mm 2 mps 732 mmHg 83%
    04:00 +6°C° 0 mm 1 mps 732 mmHg 83%
    05:00 +6°C° 0 mm 1 mps 732 mmHg 82%
    06:00 +6°C° 0 mm 1 mps 732 mmHg 82%
    07:00 +7°C° 0 mm 1 mps 733 mmHg 81%
    08:00 +8°C° 0 mm 1 mps 733 mmHg 79%
    09:00 +9°C° 0 mm 1 mps 733 mmHg 77%
    10:00 +9°C° 0 mm 1 mps 732 mmHg 74%
    11:00 +10°C° 0 mm 1 mps 732 mmHg 73%
    12:00 +11°C° 0 mm 1 mps 732 mmHg 71%
    13:00 +11°C° 0 mm 1 mps 732 mmHg 70%
    14:00 +11°C° 0 mm 1 mps 732 mmHg 73%
    15:00 +9°C° 0 mm 0 mps 732 mmHg 77%
    16:00 +8°C° 0 mm 0 mps 732 mmHg 80%
    17:00 +8°C° 0.2 mm 0 mps 732 mmHg 82%
    18:00 +9°C° 0.2 mm 1 mps 732 mmHg 83%
    19:00 +9°C° 0.2 mm 1 mps 732 mmHg 85%
    20:00 +9°C° 0.4 mm 1 mps 732 mmHg 87%
    21:00 +9°C° 0.4 mm 1 mps 732 mmHg 89%
    22:00 +8°C° 0.4 mm 1 mps 732 mmHg 91%
    23:00 +8°C° 0.1 mm 1 mps 732 mmHg 89%

    13 December, Friday

    Time Temperature Precipitation Wind Pressure Humidity
    00:00 +8°C° 0.1 mm 1 mps 732 mmHg 88%
    01:00 +8°C° 0.1 mm 1 mps 732 mmHg 87%
    02:00 +8°C° 0.5 mm 1 mps 731 mmHg 89%
    03:00 +8°C° 0.5 mm 1 mps 731 mmHg 90%
    04:00 +8°C° 0.5 mm 1 mps 731 mmHg 92%
    05:00 +8°C° 0.9 mm 1 mps 731 mmHg 92%
    06:00 +8°C° 0.9 mm 1 mps 731 mmHg 92%
    07:00 +8°C° 0.9 mm 1 mps 730 mmHg 93%
    08:00 +7°C° 0.3 mm 2 mps 730 mmHg 92%
    09:00 +8°C° 0.3 mm 2 mps 730 mmHg 92%
    10:00 +8°C° 0.3 mm 2 mps 730 mmHg 92%
    11:00 +8°C° 0.6 mm 2 mps 729 mmHg 90%
    12:00 +8°C° 0.6 mm 3 mps 729 mmHg 89%
    13:00 +9°C° 0.6 mm 3 mps 729 mmHg 88%
    14:00 +9°C° 0.5 mm 3 mps 728 mmHg 88%
    15:00 +8°C° 0.5 mm 3 mps 728 mmHg 87%
    16:00 +8°C° 0.5 mm 3 mps 727 mmHg 87%
    17:00 +8°C° 0.3 mm 3 mps 727 mmHg 88%
    18:00 +8°C° 0.3 mm 3 mps 726 mmHg 89%
    19:00 +8°C° 0.3 mm 3 mps 726 mmHg 90%
    20:00 +8°C° 0.9 mm 3 mps 725 mmHg 90%
    21:00 +8°C° 0.9 mm 3 mps 725 mmHg 90%
    22:00 +7°C° 0.9 mm 4 mps 724 mmHg 90%
    23:00 +7°C° 4.1 mm 4 mps 723 mmHg 91%

    14 December, Saturday

    Time Temperature Precipitation Wind Pressure Humidity
    00:00 +7°C° 4.1 mm 4 mps 723 mmHg 92%
    01:00 +7°C° 4.1 mm 4 mps 722 mmHg 93%
    02:00 +8°C° 3.8 mm 3 mps 722 mmHg 93%
    03:00 +8°C° 3.8 mm 3 mps 722 mmHg 93%
    04:00 +8°C° 3.8 mm 2 mps 721 mmHg 93%
    05:00 +7°C° 3.5 mm 2 mps 722 mmHg 93%
    06:00 +7°C° 3.5 mm 2 mps 722 mmHg 93%
    07:00 +7°C° 3.5 mm 2 mps 723 mmHg 93%
    08:00 +7°C° 1.5 mm 2 mps 724 mmHg 93%
    09:00 +7°C° 1.5 mm 2 mps 724 mmHg 93%
    10:00 +7°C° 1.5 mm 2 mps 725 mmHg 92%
    11:00 +8°C° 0.4 mm 2 mps 726 mmHg 92%
    12:00 +8°C° 0.4 mm 2 mps 727 mmHg 91%
    13:00 +9°C° 0.4 mm 1 mps 727 mmHg 90%
    14:00 +8°C° 0 mm 2 mps 729 mmHg 89%
    15:00 +8°C° 0 mm 2 mps 730 mmHg 88%
    16:00 +8°C° 0 mm 2 mps 731 mmHg 86%
    17:00 +8°C° 0 mm 2 mps 732 mmHg 86%
    18:00 +8°C° 0 mm 2 mps 733 mmHg 85%
    19:00 +7°C° 0 mm 2 mps 734 mmHg 85%
    20:00 +7°C° 0 mm 2 mps 735 mmHg 84%
    21:00 +7°C° 0 mm 2 mps 736 mmHg 83%
    22:00 +7°C° 0 mm 2 mps 737 mmHg 82%
    23:00 +7°C° 0 mm 2 mps 737 mmHg 81%

    15 December, Sunday

    Time Temperature Precipitation Wind Pressure Humidity
    00:00 +7°C° 0 mm 2 mps 737 mmHg 80%
    01:00 +7°C° 0 mm 2 mps 738 mmHg 79%
    02:00 +7°C° 0 mm 2 mps 738 mmHg 78%
    03:00 +7°C° 0 mm 2 mps 738 mmHg 77%
    04:00 +7°C° 0 mm 2 mps 739 mmHg 76%
    05:00 +7°C° 0 mm 2 mps 739 mmHg 74%
    06:00 +7°C° 0 mm 2 mps 739 mmHg 72%
    07:00 +7°C° 0 mm 2 mps 740 mmHg 71%
    08:00 +9°C° 0 mm 1 mps 740 mmHg 70%
    09:00 +11°C° 0 mm 1 mps 741 mmHg 69%
    10:00 +12°C° 0 mm 1 mps 741 mmHg 68%
    11:00 +13°C° 0 mm 1 mps 741 mmHg 67%
    12:00 +14°C° 0 mm 1 mps 741 mmHg 65%
    13:00 +15°C° 0 mm 1 mps 741 mmHg 64%
    14:00 +14°C° 0 mm 1 mps 741 mmHg 67%
    15:00 +13°C° 0 mm 1 mps 741 mmHg 70%
    16:00 +12°C° 0 mm 1 mps 742 mmHg 73%
    17:00 +12°C° 0 mm 1 mps 742 mmHg 73%
    18:00 +11°C° 0 mm 1 mps 742 mmHg 73%
    19:00 +11°C° 0 mm 1 mps 743 mmHg 74%
    20:00 +11°C° 0 mm 1 mps 743 mmHg 74%
    21:00 +11°C° 0 mm 1 mps 744 mmHg 75%
    22:00 +11°C° 0 mm 1 mps 744 mmHg 76%
    23:00 +11°C° 0 mm 1 mps 744 mmHg 78%
    Show more